Wind_Speed
23 21 22 24 25 25 25 19 21 20 16 12 11 12 10 22 20 25 24 23 24 23 24 28 24 30 37 42 44 47 50 50 49 51 48 43 42 42 42 43 42 42 45 47 48 50 51 51 53 54 55 55 57 59
23 20 20 21 25 26 27 23 16 19 22 17 14 14 12 13 22 20 25 23 23 27 27 25 26 27 25 29 32 36 37 40 42 43 42 40 40 41 43 45 47 49 49 50 51 52 53 54 54 55 57 59 59 60
23 21 18 19 21 25 27 26 19 13 13 18 21 18 17 12 18 25 24 22 26 26 28 28 28 28 27 27 27 29 30 33 34 36 37 37 38 39 41 43 45 46 48 48 48 47 50 52 51 51 49 49 51 55
28 19 19 17 18 21 24 26 20 15 11 10 12 19 19 14 17 26 23 21 24 27 28 28 28 29 30 30 30 31 32 32 32 33 34 34 35 35 35 36 38 38 41 41 44 45 44 46 47 47 50 53 56 57
32 21 17 17 15 18 20 23 20 15 13 9 7 9 17 14 17 25 24 22 23 25 24 25 26 26 25 27 28 28 29 30 30 30 31 32 33 33 32 33 32 32 33 35 38 42 45 46 48 52 55 55 56 58
38 28 17 17 15 15 17 17 13 11 9 8 3 6 8 9 17 24 24 23 24 24 26 26 26 25 25 25 27 27 27 28 29 30 30 30 30 31 31 31 32 34 36 38 41 44 48 51 53 55 56 58 60 62
41 33 23 16 16 13 14 14 14 9 12 10 5 8 14 5 11 20 23 22 23 25 25 25 24 27 28 28 28 28 28 28 27 26 27 28 29 30 30 31 34 35 37 40 44 46 48 51 53 56 58 58 56 54
44 35 27 19 17 15 13 13 12 13 12 11 5 14 18 12 14 17 20 22 21 24 25 28 29 28 29 29 29 28 27 28 29 30 31 32 32 33 36 37 39 41 44 46 48 49 50 50 49 47 43 38 35 33
50 37 29 24 18 18 16 14 12 11 10 8 5 10 20 24 22 20 23 24 25 26 27 26 26 27 28 27 27 28 30 30 30 30 31 34 36 40 41 43 45 46 46 47 46 43 38 31 27 29 30 32 34 37
55 39 30 26 23 18 20 17 15 13 10 9 5 6 10 15 24 25 21 26 26 26 26 26 26 27 27 27 29 29 30 31 32 34 37 38 39 41 41 40 41 39 37 33 29 30 30 32 34 36 37 39 40 42
65 45 33 28 24 21 19 22 20 17 14 11 9 8 8 12 15 20 25 23 23 25 28 30 31 31 32 33 35 36 37 38 38 38 38 38 36 29 26 25 25 25 26 28 30 32 35 36 38 39 42 44 47 49
70 53 40 30 25 22 21 19 24 23 20 17 14 12 11 10 9 12 15 20 24 29 32 34 35 36 34 33 34 35 36 37 39 36 29 24 19 21 24 27 28 29 30 32 33 35 37 40 42 45 48 50 51 53
68 58 45 34 29 23 21 20 19 26 25 22 19 17 15 14 13 12 12 14 15 14 14 15 17 21 25 27 28 28 30 29 25 23 23 19 21 24 27 28 30 31 33 35 37 40 43 45 47 48 49 51 53 55
67 63 52 38 32 27 23 20 20 18 27 28 25 22 20 18 18 17 17 17 16 15 14 13 14 15 16 17 19 20 22 23 23 22 19 22 25 27 29 31 33 35 37 39 41 43 44 45 47 49 51 54 56 60
65 63 53 43 36 29 26 21 18 19 18 28 30 28 24 22 21 20 21 21 21 19 19 19 19 20 21 21 22 24 24 26 25 25 27 29 30 32 33 34 36 38 39 41 42 43 45 46 47 50 55 58 57 52
63 61 52 45 38 31 29 22 18 17 19 18 25 32 28 26 24 24 23 24 23 23 24 25 25 26 26 26 26 27 28 28 29 31 32 34 35 36 36 37 38 39 40 42 43 45 46 48 51 54 55 51 45 40
63 64 52 46 40 32 28 23 19 17 18 19 18 20 30 34 31 29 28 28 27 26 26 26 28 28 29 30 30 30 30 31 32 33 34 35 36 37 38 39 39 41 42 43 44 45 48 51 52 50 43 41 37 39
61 62 53 48 43 34 29 27 21 18 18 19 21 22 19 21 27 32 33 31 30 30 30 30 30 31 31 30 30 31 32 33 33 34 35 36 37 37 38 39 40 41 42 42 44 47 49 47 43 40 39 37 38 41
61 62 52 47 42 36 31 28 24 20 19 19 20 23 24 23 22 21 24 29 33 33 33 33 35 34 34 34 34 34 35 35 35 35 36 37 37 37 37 37 38 39 41 43 44 43 40 38 36 35 36 37 39 41
60 61 52 45 42 38 33 31 28 23 21 20 20 22 24 27 27 26 25 25 26 28 32 34 35 36 36 36 36 36 36 36 37 36 37 37 37 36 36 36 37 39 41 41 39 36 33 33 34 34 34 35 37 38
58 57 45 43 39 36 32 31 30 26 23 21 20 21 22 24 26 28 28 27 26 27 27 28 29 30 32 33 33 34 35 35 35 35 35 35 34 34 35 36 36 36 35 32 31 31 31 30 30 32 34 36 36 36
55 46 42 43 39 36 32 31 31 31 27 24 21 20 20 21 23 25 27 28 29 29 28 28 29 29 30 30 30 31 31 32 32 33 33 34 34 35 34 33 31 30 30 29 29 28 27 27 29 30 30 28 25 24
48 43 45 44 39 37 33 33 35 32 29 24 22 21 20 19 21 22 22 24 26 28 28 29 29 29 29 30 30 30 30 31 31 31 32 31 31 30 30 29 26 26 28 28 27 26 26 27 27 26 25 23 23 26
42 43 45 43 40 36 35 37 38 36 30 27 26 24 22 21 20 21 20 21 22 22 23 24 25 26 27 28 28 28 27 27 26 24 25 24 24 23 24 24 24 24 25 25 26 27 26 24 24 24 21 22 26 25
43 46 44 40 38 38 40 41 41 38 35 31 27 24 22 21 20 19 19 20 19 19 19 19 20 20 20 20 20 20 20 20 19 18 17 17 18 19 20 22 21 22 23 24 25 24 22 21 22 22 20 22 23 23
49 46 42 41 42 42 43 44 42 39 35 30 27 24 21 20 19 17 18 18 17 17 17 16 17 17 18 18 18 18 18 17 17 17 17 18 19 20 21 23 25 26 24 23 21 22 22 22 21 20 20 22 21 22
46 43 42 42 43 43 42 41 38 37 34 30 25 22 19 18 17 16 17 16 16 15 15 16 16 16 16 17 17 18 19 21 22 22 22 22 23 24 24 24 25 24 23 23 23 22 23 23 21 18 19 18 19 19
45 44 43 43 44 43 41 39 37 34 30 27 24 20 18 16 16 16 16 16 15 15 15 15 16 16 17 17 18 19 21 24 25 26 27 27 27 27 26 25 23 21 21 21 21 20 21 19 16 15 15 17 17 16
44 43 43 44 44 41 38 34 32 30 27 24 21 19 17 16 16 17 17 16 16 16 17 17 18 18 19 20 21 22 24 25 27 28 28 28 26 24 23 22 20 18 18 18 16 15 15 13 12 12 13 14 13 12
43 43 44 43 39 36 32 31 30 27 24 21 19 18 16 14 15 17 17 17 17 17 17 18 18 19 19 20 22 25 28 30 31 31 30 28 25 21 18 16 15 15 14 13 13 14 10 10 9 9 11 11 11 12
42 43 40 36 34 32 31 29 26 23 20 18 16 15 12 11 12 14 15 15 16 16 16 17 19 22 24 25 26 26 26 26 28 28 28 27 25 23 20 17 14 13 13 14 14 12 10 8 8 9 11 11 12 13
41 37 34 32 32 30 27 25 22 19 17 15 13 12 10 10 11 12 13 14 15 16 18 20 20 20 21 21 22 22 22 21 20 20 20 20 21 20 19 17 14 13 14 14 12 10 9 8 7 8 10 10 12 13
35 31 32 32 29 26 24 21 19 17 15 13 12 12 12 11 12 13 14 15 15 15 16 15 15 16 17 18 19 20 20 19 18 16 15 15 16 17 17 17 15 14 13 10 10 10 9 7 7 8 9 10 11 12
Wind_Direction
318 324 332 340 343 346 344 313 270 264 267 271 268 277 274 256 205 195 194 199 203 213 222 224 219 219 216 211 206 204 207 211 225 229 234 243 246 246 246 246 245 244 247 252 255 257 259 258 261 263 265 268 269 269
316 313 322 333 340 347 350 341 313 271 255 254 251 256 263 253 228 197 194 198 200 205 207 217 229 231 224 218 220 225 229 230 230 234 240 243 243 243 243 245 248 252 255 257 260 263 264 264 264 265 265 266 267 269
327 307 311 323 335 343 351 353 341 316 281 250 243 238 244 242 216 200 193 196 202 205 205 206 205 211 215 220 221 220 221 225 229 234 238 240 241 245 247 251 254 256 258 259 260 261 262 263 265 266 267 267 268 269
340 307 304 313 328 340 350 357 351 340 311 291 260 238 228 228 205 208 197 195 199 205 206 212 213 214 216 220 224 230 233 232 233 235 238 243 247 249 252 255 257 261 262 263 265 266 269 270 270 271 271 272 272 273
347 326 298 302 317 333 347 357 5 21 353 311 324 211 215 224 203 206 207 199 200 204 206 211 215 216 216 220 224 230 232 234 236 240 245 248 251 255 259 261 265 270 274 276 276 277 277 278 278 277 277 278 280 282
351 343 308 293 302 318 336 355 14 56 346 332 279 182 192 208 210 193 202 208 207 209 211 217 217 220 219 218 219 222 227 232 235 239 244 250 254 258 265 271 273 278 281 280 278 277 278 278 278 279 281 282 282 283
352 348 337 291 288 298 315 336 349 314 305 318 205 188 167 155 198 202 198 197 202 208 213 214 222 222 223 224 228 229 229 231 235 241 248 254 260 266 270 277 278 279 279 277 276 276 278 279 279 279 280 281 282 283
353 346 342 326 282 283 290 305 325 339 331 329 242 197 197 199 183 187 201 200 206 209 214 219 220 221 226 227 225 227 234 239 244 249 256 261 267 276 282 281 275 277 279 278 278 280 281 281 281 282 282 282 282 284
356 347 340 336 311 275 275 282 295 312 328 340 301 231 217 222 228 227 218 211 207 211 215 219 222 225 227 228 229 234 238 241 245 248 254 262 271 277 275 270 273 276 275 276 278 277 278 278 278 281 283 283 285 286
360 351 343 334 332 301 269 270 273 279 295 306 312 247 247 247 240 239 242 227 220 219 219 220 218 225 232 235 237 240 242 245 251 258 263 268 274 272 272 273 270 267 265 266 267 270 274 278 281 283 283 284 284 283
1 356 343 334 327 325 295 265 265 265 265 274 284 285 269 242 243 243 240 239 237 239 240 241 242 244 244 243 244 245 248 252 256 260 265 273 271 269 259 255 255 257 262 266 269 273 276 278 280 281 282 283 285 286
359 355 349 337 324 321 318 292 260 260 259 259 259 266 262 257 256 253 251 251 254 252 252 252 252 252 250 248 247 248 251 255 260 265 259 251 254 249 250 253 259 264 269 272 274 278 281 283 284 286 287 287 288 288
357 356 354 344 330 317 312 310 291 256 256 257 254 252 255 260 263 257 247 245 250 254 250 243 241 242 242 244 244 244 244 244 242 240 243 253 249 249 254 260 265 269 272 276 279 281 283 284 285 285 285 286 287 288
352 355 353 346 338 324 313 310 297 285 253 254 254 252 253 259 259 258 254 251 250 250 250 245 239 237 235 234 232 236 239 243 243 249 258 255 257 260 263 267 270 274 276 278 280 282 283 285 287 289 290 291 292 293
351 351 352 349 340 333 324 314 304 283 279 253 252 253 252 255 260 262 262 260 260 256 253 252 250 249 249 249 248 248 252 254 259 266 264 264 266 269 272 274 277 278 281 283 285 286 288 289 290 293 294 296 296 295
346 349 348 348 343 335 333 318 312 298 278 281 260 254 255 255 254 257 259 261 261 262 264 264 264 262 261 262 263 264 264 268 270 269 271 272 275 277 280 282 283 285 287 289 290 291 292 294 295 297 297 296 296 293
343 347 348 347 344 339 333 326 311 303 291 274 272 266 254 251 251 252 254 257 261 263 264 265 267 268 269 267 268 270 272 272 273 275 276 279 281 283 285 286 287 289 290 290 291 292 295 297 298 297 295 293 290 293
341 344 345 343 343 341 336 332 323 304 294 281 266 264 270 266 255 252 253 255 257 259 260 261 264 266 270 273 274 274 273 273 274 277 279 281 282 283 285 286 286 288 289 290 293 295 297 297 296 296 295 291 289 294
338 341 342 341 338 338 337 335 331 320 299 286 275 265 261 263 264 263 257 252 251 254 258 261 263 266 269 270 270 271 272 274 276 277 278 279 280 280 281 283 285 287 290 293 295 296 295 295 295 295 294 293 292 293
335 337 338 336 334 335 334 335 335 326 316 300 285 274 265 260 259 261 262 260 258 256 255 256 259 262 263 266 268 270 271 273 274 276 277 278 280 281 283 284 286 290 292 294 294 293 294 296 296 296 297 299 299 299
333 334 335 332 330 333 331 331 330 327 319 310 303 287 276 268 263 259 258 259 260 260 259 259 261 264 266 267 268 270 271 273 275 276 277 278 280 281 283 285 287 290 290 292 295 297 298 297 299 303 305 304 304 305
332 332 330 330 328 330 327 326 330 328 323 314 305 301 290 278 271 264 261 258 258 259 260 262 264 265 265 266 267 268 270 272 273 275 277 280 282 283 284 285 287 289 292 296 296 296 301 305 305 304 308 313 315 316
329 328 328 327 326 326 324 323 327 326 324 316 307 301 295 290 276 270 264 260 258 258 259 260 263 265 267 268 270 271 273 275 276 277 278 279 279 280 282 285 285 289 291 297 299 299 304 304 304 310 313 313 315 315
325 328 327 324 325 324 322 323 326 327 323 318 313 303 296 289 285 272 265 261 260 259 259 261 262 265 267 270 272 274 275 276 275 275 277 279 281 283 284 286 287 289 290 298 302 298 299 302 308 312 311 311 314 317
324 328 324 324 323 322 322 323 324 323 321 317 311 303 292 284 280 272 262 259 259 260 260 261 263 265 267 269 272 273 274 274 273 272 275 279 283 288 292 294 295 294 294 299 298 294 298 307 309 311 309 314 317 317
324 325 323 322 324 323 322 321 322 324 322 321 315 306 294 284 278 267 256 256 257 257 259 260 262 264 266 268 270 272 273 270 269 269 272 276 282 289 295 300 303 303 300 303 304 305 307 312 313 309 312 317 321 326
322 322 320 322 321 320 319 319 320 319 319 318 314 307 298 285 269 256 251 250 251 254 255 258 261 264 265 266 265 266 266 267 270 272 274 277 281 284 289 292 292 294 295 303 305 307 305 309 309 307 311 318 328 331
321 319 320 319 318 320 319 320 318 316 316 314 311 306 299 282 259 247 244 246 247 250 253 257 261 264 267 269 271 272 274 276 277 278 279 280 282 285 286 287 283 284 287 293 295 294 296 301 299 302 314 325 328 333
317 317 319 319 320 319 319 318 317 316 314 312 308 302 297 278 256 245 243 244 247 251 255 258 262 266 269 274 278 280 281 282 282 282 281 280 278 272 271 274 271 272 278 286 289 295 296 289 295 306 320 321 324 331
316 318 319 319 317 318 317 316 316 315 313 310 305 303 294 273 253 247 246 249 253 257 261 265 269 271 274 278 280 282 285 286 286 285 285 284 284 282 278 277 271 267 277 290 299 302 289 286 294 306 313 319 334 334
318 319 317 317 316 316 316 315 314 313 311 308 307 305 292 271 252 247 250 255 259 262 265 268 274 281 285 287 288 288 286 285 282 279 276 276 276 278 278 278 271 270 282 296 297 296 285 291 297 315 320 321 328 328
319 318 318 318 317 317 315 313 312 310 307 304 303 301 289 272 259 255 256 258 262 267 273 279 282 285 289 294 296 297 296 294 289 281 272 264 262 264 267 268 265 267 274 281 282 286 279 282 288 308 315 321 327 335
318 319 319 319 318 318 317 315 312 307 303 295 291 291 285 277 270 266 266 270 273 275 277 280 286 293 297 299 300 300 300 299 296 288 274 259 251 250 253 251 250 252 260 271 278 281 270 263 269 295 313 331 338 339
Height
5465 5462 5458 5453 5448 5442 5436 5432 5431 5431 5433 5434 5434 5434 5435 5437 5442 5449 5451 5455 5462 5469 5474 5479 5485 5492 5498 5504 5510 5515 5523 5527 5531 5537 5542 5547 5550 5554 5558 5561 5564 5568 5569 5572 5571 5572 5574 5575 5578 5582 5581 5580 5579 5579
5460 5458 5455 5451 5446 5440 5434 5428 5425 5424 5426 5428 5430 5431 5432 5434 5437 5442 5447 5453 5459 5464 5470 5474 5479 5486 5492 5496 5502 5507 5513 5517 5521 5526 5532 5536 5540 5543 5546 5549 5551 5556 5557 5559 5561 5561 5560 5561 5562 5564 5566 5565 5564 5563
5456 5454 5451 5448 5445 5439 5433 5427 5422 5420 5420 5421 5423 5426 5427 5430 5433 5439 5445 5450 5455 5460 5465 5470 5475 5480 5485 5490 5494 5499 5503 5507 5512 5517 5521 5525 5530 5532 5535 5536 5539 5542 5544 5545 5546 5546 5545 5547 5549 5550 5550 5550 5549 5547
5452 5449 5448 5445 5442 5438 5433 5427 5422 5418 5417 5416 5417 5418 5423 5427 5430 5434 5441 5446 5451 5456 5461 5467 5471 5475 5478 5483 5487 5491 5496 5499 5503 5508 5512 5515 5519 5522 5523 5524 5527 5530 5530 5530 5530 5530 5531 5532 5535 5535 5535 5534 5533 5532
5450 5444 5443 5442 5440 5437 5433 5428 5423 5419 5416 5415 5414 5415 5418 5421 5425 5430 5437 5442 5446 5453 5457 5461 5464 5468 5473 5477 5481 5484 5488 5491 5495 5500 5504 5507 5510 5513 5513 5514 5516 5516 5518 5518 5516 5515 5518 5519 5520 5520 5518 5516 5514 5513
5448 5442 5438 5437 5436 5435 5432 5429 5425 5419 5416 5415 5414 5416 5417 5419 5421 5426 5433 5439 5442 5447 5452 5454 5459 5462 5466 5470 5474 5478 5482 5485 5489 5493 5496 5498 5500 5503 5505 5506 5506 5506 5505 5505 5504 5504 5504 5503 5503 5502 5500 5500 5498 5496
5447 5441 5435 5433 5433 5432 5430 5428 5425 5420 5417 5415 5415 5416 5418 5418 5422 5426 5431 5436 5439 5442 5444 5448 5451 5455 5460 5464 5467 5471 5474 5477 5481 5484 5488 5489 5491 5492 5494 5497 5495 5494 5493 5492 5490 5491 5492 5490 5489 5486 5484 5481 5479 5477
5446 5439 5433 5429 5428 5428 5427 5426 5423 5420 5417 5415 5415 5416 5418 5419 5421 5424 5426 5429 5433 5435 5439 5443 5446 5450 5453 5456 5459 5462 5465 5468 5471 5475 5478 5479 5479 5480 5484 5483 5479 5479 5478 5478 5476 5475 5475 5475 5473 5470 5468 5466 5465 5463
5446 5438 5431 5426 5423 5423 5423 5422 5421 5419 5417 5415 5414 5414 5416 5418 5419 5421 5423 5425 5427 5431 5433 5437 5441 5444 5446 5449 5452 5455 5457 5460 5463 5467 5468 5469 5470 5470 5471 5468 5467 5466 5464 5463 5461 5460 5461 5462 5460 5460 5457 5455 5454 5452
5445 5436 5430 5424 5420 5418 5418 5418 5417 5417 5416 5414 5413 5412 5412 5413 5414 5416 5418 5421 5423 5425 5428 5431 5434 5436 5440 5442 5444 5446 5447 5449 5452 5455 5455 5456 5457 5455 5455 5455 5452 5451 5450 5450 5452 5451 5451 5451 5450 5449 5446 5445 5443 5441
5446 5435 5428 5422 5416 5413 5411 5412 5412 5412 5413 5412 5411 5410 5410 5409 5410 5411 5413 5415 5417 5419 5421 5423 5425 5427 5429 5431 5432 5434 5435 5438 5440 5444 5442 5442 5443 5444 5443 5442 5441 5440 5441 5441 5442 5442 5441 5441 5439 5437 5435 5432 5430 5426
5444 5434 5424 5418 5414 5409 5406 5404 5405 5406 5407 5408 5408 5407 5407 5407 5407 5407 5408 5410 5410 5411 5413 5414 5415 5416 5418 5420 5421 5423 5425 5427 5428 5432 5432 5432 5436 5435 5435 5434 5434 5433 5433 5433 5433 5432 5431 5429 5427 5424 5421 5417 5414 5410
5441 5431 5422 5414 5409 5404 5401 5399 5397 5397 5399 5401 5402 5403 5403 5404 5404 5404 5404 5404 5405 5405 5406 5406 5407 5408 5409 5411 5413 5415 5416 5418 5421 5422 5424 5427 5427 5427 5427 5426 5426 5425 5425 5424 5423 5421 5419 5416 5413 5411 5407 5402 5399 5394
5437 5428 5419 5411 5404 5400 5395 5392 5390 5389 5390 5392 5394 5396 5397 5398 5399 5399 5399 5400 5401 5401 5401 5402 5403 5404 5404 5406 5407 5409 5410 5412 5413 5416 5418 5417 5417 5417 5417 5417 5417 5416 5415 5413 5411 5409 5406 5403 5399 5395 5390 5386 5381 5376
5435 5423 5414 5406 5400 5394 5391 5386 5384 5383 5382 5383 5385 5387 5390 5391 5392 5392 5393 5394 5395 5395 5396 5397 5398 5399 5400 5401 5402 5403 5404 5405 5407 5408 5408 5407 5407 5407 5407 5406 5405 5404 5402 5400 5397 5394 5391 5387 5384 5379 5372 5367 5361 5356
5430 5421 5411 5403 5397 5390 5385 5381 5378 5376 5375 5375 5375 5378 5380 5382 5383 5384 5385 5386 5388 5389 5389 5390 5391 5392 5393 5394 5395 5396 5397 5397 5397 5397 5397 5397 5396 5396 5395 5393 5392 5389 5387 5384 5381 5378 5374 5370 5366 5362 5355 5348 5345 5341
5424 5415 5406 5399 5392 5386 5380 5376 5373 5371 5369 5369 5368 5367 5368 5371 5373 5375 5377 5378 5379 5381 5381 5381 5382 5383 5383 5384 5386 5387 5387 5387 5386 5386 5386 5385 5384 5383 5381 5380 5378 5375 5373 5370 5367 5363 5360 5355 5350 5345 5341 5336 5332 5328
5419 5410 5401 5393 5388 5382 5376 5371 5367 5365 5362 5361 5361 5361 5360 5361 5362 5364 5366 5368 5369 5370 5371 5372 5372 5373 5374 5375 5376 5376 5375 5375 5375 5374 5374 5373 5372 5371 5369 5367 5365 5362 5359 5357 5354 5349 5345 5341 5336 5332 5328 5325 5321 5317
5413 5404 5394 5387 5382 5377 5370 5366 5362 5358 5355 5354 5353 5352 5352 5353 5353 5354 5355 5356 5358 5359 5360 5361 5361 5363 5364 5364 5364 5364 5364 5363 5363 5363 5362 5361 5360 5359 5358 5355 5353 5350 5347 5344 5340 5336 5333 5329 5325 5322 5318 5314 5311 5305
5405 5396 5388 5382 5376 5370 5365 5360 5356 5352 5349 5346 5345 5343 5343 5343 5344 5345 5346 5346 5347 5348 5349 5350 5351 5351 5352 5352 5352 5352 5352 5352 5351 5351 5349 5349 5348 5347 5346 5344 5341 5338 5335 5332 5328 5326 5323 5318 5314 5311 5307 5303 5299 5294
5397 5389 5381 5376 5371 5365 5359 5355 5350 5347 5343 5340 5337 5335 5334 5333 5334 5335 5335 5336 5337 5338 5338 5340 5340 5341 5341 5341 5341 5341 5341 5341 5340 5339 5338 5338 5338 5335 5334 5332 5330 5328 5325 5322 5319 5315 5312 5309 5305 5301 5297 5292 5287 5281
5389 5381 5374 5369 5364 5359 5354 5349 5345 5340 5337 5333 5330 5328 5326 5324 5324 5324 5325 5326 5326 5327 5328 5329 5330 5330 5331 5331 5331 5331 5331 5330 5330 5329 5327 5326 5325 5324 5323 5321 5319 5317 5314 5312 5310 5307 5303 5300 5296 5292 5288 5283 5278 5274
5380 5374 5368 5362 5357 5352 5348 5342 5339 5334 5329 5326 5323 5320 5318 5316 5315 5315 5316 5316 5316 5317 5318 5319 5320 5320 5320 5321 5320 5320 5320 5320 5319 5318 5317 5316 5315 5314 5312 5311 5310 5309 5306 5303 5301 5298 5295 5292 5289 5285 5281 5276 5273 5268
5371 5365 5359 5354 5348 5343 5339 5335 5330 5325 5322 5318 5315 5312 5310 5308 5307 5307 5307 5307 5307 5308 5309 5309 5310 5310 5311 5311 5311 5310 5310 5310 5310 5308 5307 5306 5306 5305 5304 5302 5302 5300 5298 5296 5293 5290 5288 5285 5281 5278 5275 5271 5267 5263
5365 5359 5352 5346 5340 5336 5331 5326 5321 5317 5312 5308 5305 5302 5300 5299 5298 5298 5299 5299 5299 5300 5301 5301 5302 5302 5302 5302 5302 5302 5302 5302 5302 5302 5301 5300 5299 5298 5296 5295 5294 5293 5291 5289 5286 5283 5280 5278 5275 5271 5269 5266 5262 5257
5355 5350 5344 5337 5332 5327 5321 5315 5310 5306 5302 5298 5295 5293 5291 5290 5290 5290 5291 5292 5293 5293 5294 5295 5295 5295 5296 5295 5295 5295 5295 5296 5296 5296 5295 5294 5293 5292 5290 5288 5285 5283 5282 5281 5279 5276 5273 5271 5268 5266 5263 5260 5256 5252
5346 5340 5334 5329 5323 5318 5312 5307 5302 5297 5293 5290 5287 5284 5282 5282 5282 5283 5284 5285 5286 5287 5288 5288 5289 5289 5290 5290 5290 5290 5290 5290 5289 5289 5288 5288 5286 5285 5284 5282 5280 5278 5276 5274 5272 5270 5267 5265 5263 5261 5258 5255 5252 5249
5337 5330 5325 5320 5314 5308 5302 5297 5292 5288 5285 5282 5279 5277 5275 5275 5275 5277 5278 5279 5280 5281 5282 5283 5283 5283 5283 5283 5283 5283 5282 5282 5281 5280 5280 5279 5278 5277 5275 5274 5273 5272 5270 5269 5267 5264 5262 5260 5258 5256 5254 5251 5249 5246
5327 5321 5316 5309 5303 5298 5293 5288 5284 5280 5277 5275 5272 5270 5269 5268 5269 5270 5272 5273 5274 5275 5276 5277 5277 5277 5277 5277 5276 5275 5274 5273 5272 5271 5270 5269 5269 5269 5268 5266 5266 5265 5264 5263 5261 5259 5257 5256 5254 5253 5250 5248 5246 5243
5317 5311 5305 5300 5294 5289 5285 5281 5277 5273 5270 5268 5266 5264 5263 5262 5263 5265 5266 5267 5268 5269 5270 5270 5270 5270 5270 5269 5269 5268 5265 5263 5262 5261 5259 5258 5258 5258 5258 5258 5258 5258 5258 5256 5255 5254 5252 5252 5250 5249 5248 5246 5243 5240
5306 5301 5296 5290 5285 5281 5277 5273 5269 5267 5264 5262 5261 5259 5258 5258 5259 5260 5261 5262 5263 5264 5264 5265 5264 5263 5262 5261 5259 5258 5257 5255 5252 5251 5250 5250 5250 5250 5251 5251 5252 5252 5251 5251 5250 5249 5248 5247 5247 5245 5244 5242 5241 5238
5297 5292 5287 5282 5278 5274 5270 5266 5263 5261 5259 5258 5257 5256 5255 5255 5255 5256 5257 5257 5258 5258 5258 5258 5257 5256 5254 5252 5251 5249 5247 5246 5244 5243 5242 5242 5242 5243 5244 5245 5246 5246 5246 5246 5245 5245 5244 5244 5243 5243 5241 5240 5238 5237
5288 5284 5279 5275 5270 5267 5263 5261 5258 5256 5254 5253 5252 5252 5251 5251 5252 5252 5252 5252 5252 5252 5252 5251 5251 5250 5248 5246 5244 5242 5240 5238 5237 5236 5236 5236 5236 5237 5238 5239 5240 5241 5242 5241 5241 5240 5240 5240 5240 5240 5239 5238 5237 5235